星链-11103 [DTC] (STARLINK-11103 [DTC] )

导读 | 豆包AI

STARLINK-11103是美国SpaceX公司星链(Starlink)星座的卫星,于2024年5月10日发射,属于星链第二代卫星组网的组成部分。星链项目旨在构建全球低轨宽带互联网星座,该卫星配备先进相控阵天线与激光星间链路,可提供高速低延迟通信服务,助力全球偏远地区、海洋等场景的网络覆盖,推动全球互联基础设施发展。

基本信息
目录编号:
59718
目录名称:
STARLINK-11103
国际标识:
2024-088L
轨道中心:
EARTH
卫星名称:
星链-11103 [DTC]
卫星全名:
星链-11103 [DTC] (STARLINK-11103 [DTC] )
卫星状态:
在轨 (已飞行674 天)
发射日期:
2024-05-10 UTC
国别 :
美国 (US)
星等 :
--
轨道信息
数据来源 国际轨道数据
星历时间: 2026-03-15T05:38:45+0800
20小时前
查看轨道信息
半长轴: 6737.848km
偏心率: 0.0000881
轨道倾角: 53.159°
近地点辐角 70.512°
升交点赤经 300.368°
平近点角 289.599°
近地点: 359.117km
远地点: 360.305km
周期: 91.736分钟
每日圈数: 15.697158
详细信息
固有亮度:
5
最大亮度:
0.6
卫星平台:
Starlink v2.0 mini
覆盖范围:
全球
运营商:
太空探索技术公司
运营商所在国:
美国
制造商(研发单位):
太空探索技术公司
制造商所在国:
美国
使用方式:
暂无
卫星简介
星链(Starlink)计划是由太空探索技术公司(SpaceX)提出的一个巨型低轨卫星互联网星座项目,计划在2019年至2024年间在太空搭建由约1.2万颗卫星组成的“星链”网络,其中1584颗将部署在地球上空550千米处的近地轨道,并从2020年开始工作。该卫星仍在工作。
2D轨道图
3D轨道图
轨道高度分析图
轨道倾角分析图
轨道综合分析图
查看轨道综合分析图